User: anonymous   Login
Location: Caltech
(34.1382°N, 118.1253°W)
Time: 17:20:37
(UTC-07:00)
Language:

Iridium 49 - Orbit

View from above orbital plane
View from above orbital plane
View from above satellite
View from above satellite

Ground track
Ground track

The orbit data is extracted from the following two-line orbital elements,

1 25108U 97082E   17268.59377207 +.00000161 +00000-0 +50255-4 0  9995
2 25108 086.3992 213.4149 0002348 081.9778 042.9807 14.34218276034506
Epoch (UTC): 25 September 2017 14:15:01
Eccentricity: 0.0002348
inclination: 86.3992°
perigee height: 776 km
apogee height: 779 km
right ascension of ascending node: 213.4149°
argument of perigee: 81.9778°
revolutions per day: 14.34218276
mean anomaly at epoch: 42.9807°
orbit number at epoch: 3450

The dashed part of the orbit path shows where the satellite is in the earth's shadow,  

DLR